TimeCST,TemperatureF,Dew PointF,Humidity,Sea Level PressureIn,VisibilityMPH,Wind Direction,Wind SpeedMPH,Gust SpeedMPH,PrecipitationIn,Events,Conditions,WindDirDegrees,DateUTC
12:21 AM,35.6,35.6,100,29.96,2.0,NNE,5.8,-,N/A,,Mostly Cloudy,20,2012-12-08 06:21:00
12:28 AM,35.6,33.8,93,29.95,1.2,North,4.6,-,N/A,,Mostly Cloudy,10,2012-12-08 06:28:00
12:34 AM,35.6,33.8,93,29.95,0.5,North,5.8,-,N/A,Fog,Fog,10,2012-12-08 06:34:00
12:44 AM,33.8,33.8,100,29.95,0.2,NNE,4.6,-,N/A,Fog,Fog,30,2012-12-08 06:44:00
12:53 AM,33.1,32.0,96,29.96,0.2,North,3.5,-,N/A,Fog,Fog,10,2012-12-08 06:53:00
1:00 AM,32.0,30.2,93,29.95,0.2,Calm,Calm,-,N/A,Fog,Fog,0,2012-12-08 07:00:00
1:10 AM,32.0,30.2,93,29.95,0.2,NNW,4.6,-,N/A,Fog,Fog,340,2012-12-08 07:10:00
1:34 AM,30.2,30.2,100,29.95,0.2,Calm,Calm,-,N/A,Fog,Light Freezing Fog,0,2012-12-08 07:34:00
1:53 AM,32.0,30.0,92,29.97,0.5,Calm,Calm,-,N/A,Fog,Fog,0,2012-12-08 07:53:00
2:00 AM,33.8,30.2,87,29.96,1.0,Calm,Calm,-,N/A,,Mist,0,2012-12-08 08:00:00
2:08 AM,33.8,32.0,93,29.96,0.5,North,4.6,-,N/A,Fog,Fog,10,2012-12-08 08:08:00
2:22 AM,32.0,30.2,93,29.97,0.2,Calm,Calm,-,N/A,Fog,Fog,0,2012-12-08 08:22:00
2:29 AM,30.2,30.2,100,29.96,0.2,Calm,Calm,-,N/A,Fog,Light Freezing Fog,0,2012-12-08 08:29:00
2:53 AM,30.0,28.9,96,29.99,0.2,Calm,Calm,-,N/A,Fog,Light Freezing Fog,0,2012-12-08 08:53:00
3:27 AM,28.4,28.4,100,29.97,0.2,NE,3.5,-,N/A,Fog,Light Freezing Fog,50,2012-12-08 09:27:00
3:38 AM,28.4,28.4,100,29.98,0.2,NE,3.5,-,N/A,Fog,Light Freezing Fog,40,2012-12-08 09:38:00
3:53 AM,28.9,28.0,96,29.99,0.2,Calm,Calm,-,N/A,Fog,Light Freezing Fog,0,2012-12-08 09:53:00
4:04 AM,30.2,28.4,93,29.97,0.2,Calm,Calm,-,N/A,Fog,Light Freezing Fog,0,2012-12-08 10:04:00
4:13 AM,30.2,28.4,93,29.97,1.0,Calm,Calm,-,N/A,,Mist,0,2012-12-08 10:13:00
4:22 AM,30.2,28.4,93,29.97,3.0,Calm,Calm,-,N/A,,Mostly Cloudy,0,2012-12-08 10:22:00
4:29 AM,30.2,28.4,93,29.98,4.0,Calm,Calm,-,N/A,,Scattered Clouds,0,2012-12-08 10:29:00
4:53 AM,30.0,28.0,92,30.00,5.0,Calm,Calm,-,N/A,,Clear,0,2012-12-08 10:53:00
5:18 AM,28.4,26.6,93,29.98,3.0,North,3.5,-,N/A,,Scattered Clouds,360,2012-12-08 11:18:00
5:20 AM,28.4,26.6,93,29.98,1.2,North,4.6,-,N/A,,Mostly Cloudy,10,2012-12-08 11:20:00
5:23 AM,28.4,28.4,100,29.98,0.5,North,4.6,-,N/A,Fog,Light Freezing Fog,360,2012-12-08 11:23:00
5:37 AM,28.4,26.6,93,29.99,0.2,NNW,3.5,-,N/A,Fog,Light Freezing Fog,340,2012-12-08 11:37:00
5:53 AM,28.0,27.0,96,30.01,0.2,North,4.6,-,N/A,Fog,Light Freezing Fog,350,2012-12-08 11:53:00
6:13 AM,28.4,28.4,100,29.98,0.5,NNE,5.8,-,N/A,Fog,Light Freezing Fog,30,2012-12-08 12:13:00
6:16 AM,28.4,26.6,93,29.98,1.0,NE,6.9,-,N/A,,Mist,40,2012-12-08 12:16:00
6:22 AM,28.4,26.6,93,29.99,3.0,NNE,6.9,-,N/A,,Mostly Cloudy,20,2012-12-08 12:22:00
6:31 AM,28.4,26.6,93,30.00,5.0,North,3.5,-,N/A,,Scattered Clouds,360,2012-12-08 12:31:00
6:41 AM,28.4,26.6,93,29.99,2.0,NNE,3.5,-,N/A,,Mostly Cloudy,20,2012-12-08 12:41:00
6:45 AM,28.4,26.6,93,29.99,0.8,Calm,Calm,-,N/A,,Mist,0,2012-12-08 12:45:00
6:53 AM,28.0,27.0,96,30.02,0.2,Calm,Calm,-,N/A,Fog,Light Freezing Fog,0,2012-12-08 12:53:00
7:16 AM,26.6,26.6,100,30.00,0.2,Calm,Calm,-,N/A,Fog,Light Freezing Fog,0,2012-12-08 13:16:00
7:31 AM,28.4,26.6,93,30.01,1.0,Calm,Calm,-,N/A,,Mist,0,2012-12-08 13:31:00
7:40 AM,28.4,26.6,93,30.00,2.0,Calm,Calm,-,N/A,,Partly Cloudy,0,2012-12-08 13:40:00
7:53 AM,28.0,27.0,96,30.02,3.0,Calm,Calm,-,N/A,,Clear,0,2012-12-08 13:53:00
8:53 AM,30.9,30.0,96,30.03,4.0,Calm,Calm,-,N/A,,Clear,0,2012-12-08 14:53:00
9:53 AM,35.1,33.1,92,30.04,6.0,Variable,3.5,-,N/A,,Mostly Cloudy,0,2012-12-08 15:53:00
10:53 AM,39.0,33.1,79,30.03,8.0,ENE,5.8,-,N/A,,Scattered Clouds,70,2012-12-08 16:53:00
11:53 AM,41.0,33.1,73,29.99,10.0,East,6.9,-,N/A,,Partly Cloudy,80,2012-12-08 17:53:00
12:53 PM,42.1,32.0,67,29.97,10.0,East,6.9,-,N/A,,Scattered Clouds,100,2012-12-08 18:53:00
1:53 PM,44.1,32.0,63,29.96,10.0,East,6.9,-,N/A,,Partly Cloudy,90,2012-12-08 19:53:00
2:53 PM,44.1,33.1,65,29.95,10.0,SE,10.4,-,N/A,,Clear,130,2012-12-08 20:53:00
3:53 PM,43.0,33.1,68,29.94,9.0,ESE,9.2,-,N/A,,Scattered Clouds,120,2012-12-08 21:53:00
5:18 PM,41.0,33.8,76,29.91,9.0,East,8.1,-,N/A,,Overcast,100,2012-12-08 23:18:00
5:53 PM,41.0,34.0,76,29.93,8.0,ESE,6.9,-,N/A,,Overcast,120,2012-12-08 23:53:00
6:53 PM,39.9,33.1,77,29.93,9.0,East,8.1,-,N/A,,Overcast,100,2012-12-09 00:53:00
7:53 PM,39.9,33.1,77,29.93,10.0,ESE,8.1,-,N/A,,Overcast,110,2012-12-09 01:53:00
8:53 PM,39.9,33.1,77,29.92,8.0,ESE,10.4,-,N/A,,Overcast,120,2012-12-09 02:53:00
9:53 PM,39.0,34.0,82,29.92,6.0,East,9.2,-,N/A,,Haze,100,2012-12-09 03:53:00
10:05 PM,39.2,35.6,87,29.90,5.0,ESE,9.2,-,0.00,Rain,Light Rain,110,2012-12-09 04:05:00
10:28 PM,37.4,35.6,93,29.90,4.0,ESE,6.9,-,0.01,,Overcast,110,2012-12-09 04:28:00
10:40 PM,37.4,35.6,93,29.90,4.0,ESE,5.8,-,0.01,,Overcast,120,2012-12-09 04:40:00
10:53 PM,37.9,36.0,93,29.92,5.0,East,4.6,-,0.01,,Overcast,100,2012-12-09 04:53:00
11:46 PM,37.4,35.6,93,29.90,2.5,ESE,5.8,-,0.00,Rain,Light Rain,120,2012-12-09 05:46:00
11:53 PM,37.9,36.0,93,29.91,4.0,ESE,6.9,-,0.00,,Overcast,120,2012-12-09 05:53:00